Location: Rocktram
(38.2574°N, 122.2805°W)
Time: 21:29:35
(UTC+00:00)

Cosmos 2251 Rocket - Pass Details

Date: 30 March 2020
Orbit: 765 x 791 km, 74.0° (Epoch: 30 May)

Event Time Altitude Azimuth Distance (km) Brightness Sun altitude
Rises 03:48:09 0° 175° (S) 3,253 6.5 -15.8°
Reaches altitude 10° 03:50:40 10° 167° (SSE) 2,333 5.7 -16.2°
Maximum altitude 03:55:32 38° 101° (E) 1,196 4.0 -17.1°
Drops below altitude 10° 04:00:26 10° 35° (NE) 2,359 5.9 -18.0°
Sets 04:02:59 0° 28° (NNE) 3,294 6.7 -18.5°
